Location: Rounton
(54.4000°N, 1.3500°W)
Time: 19:38:47
(UTC+00:00)

A-11 Canister half - Pass Details

Date: 07 December 2021
Orbit: 1516 x 1684 km, 47.2° (Epoch: 19 January)

Event Time Altitude Azimuth Distance (km) Brightness Sun altitude
Rises 04:05:22 0° 172° (S) 4,725 11.6 -34.3°
Reaches altitude 10° 04:11:01 10° 145° (SE) 3,786 11.3 -33.5°
Maximum altitude 04:14:24 12° 124° (SE) 3,626 11.4 -33.0°
Drops below altitude 10° 04:17:49 10° 103° (ESE) 3,841 11.8 -32.5°
Sets 04:23:37 0° 77° (ENE) 4,872 12.7 -31.7°
